Voltar ao catálogo

STARLINK-31784

AtivoComunicaçõesVLEO
NORAD 59618·PAYLOAD·🇺🇸 United States

Lançado Apr 28, 2024 de Cape Canaveral Space Force Station

Loading…

Próximas Passagens (próximas 24 horas)

TLE

AtualizadoSource: CelesTrak SupGP

Época: Sep 15, 2026, 03:36 UTC

1 59618C 24080T   26258.15048611 -.00023191  00000+0 -83986-3 0  2584
2 59618  43.0043  51.7039 0001444 271.1022 122.9150 15.27594307    12

Acompanhe STARLINK-31784 em tempo real com AllMySat

Download on the App Store